| time (UTC) | temp C | wind direction | speed KPH | gust KPH | rain 1hr cm | rain 24hr cm | rain mn cm | humidity % | barometer mb |
| 20260906150352 | 31 | 337 | 6.4 | 6.4 | 0.00 | 0.00 | 0.00 | 69 | 1013.2 |
| 20260906145851 | 32 | 31 | 6.4 | 6.4 | 0.00 | 0.00 | 0.00 | 67 | 1013.1 |
| 20260906145350 | 32 | 330 | 1.6 | 3.2 | 0.00 | 0.00 | 0.00 | 70 | 1013.1 |
| 20260906144845 | 31 | 208 | 3.2 | 4.8 | 0.00 | 0.00 | 0.00 | 68 | 1013.1 |
| 20260906144340 | 31 | 324 | 1.6 | 3.2 | 0.00 | 0.00 | 0.00 | 70 | 1013.1 |
| 20260906143840 | 31 | 211 | 1.6 | 3.2 | 0.00 | 0.00 | 0.00 | 74 | 1013.0 |
| 20260906143336 | 30 | 320 | 1.6 | 1.6 | 0.00 | 0.00 | 0.00 | 73 | 1013.1 |
| 20260906142832 | 30 | 290 | 3.2 | 4.8 | 0.00 | 0.00 | 0.00 | 75 | 1013.1 |
| 20260906142327 | 30 | 282 | 1.6 | 1.6 | 0.00 | 0.00 | 0.00 | 76 | 1013.2 |
| 20260906141826 | 30 | 332 | 1.6 | 3.2 | 0.00 | 0.00 | 0.00 | 76 | 1013.1 |
| 20260906141321 | 30 | 317 | 4.8 | 4.8 | 0.00 | 0.00 | 0.00 | 77 | 1013.2 |
| 20260906140819 | 30 | 209 | 3.2 | 3.2 | 0.00 | 0.00 | 0.00 | 78 | 1013.0 |
| 20260906140315 | 30 | 227 | 0.0 | 1.6 | 0.00 | 0.00 | 0.00 | 79 | 1013.1 |
| 20260906135813 | 29 | 260 | 3.2 | 3.2 | 0.00 | 0.00 | 0.00 | 80 | 1013.2 |
| 20260906135308 | 29 | 340 | 6.4 | 6.4 | 0.00 | 0.00 | 0.00 | 81 | 1013.1 |
| 20260906134803 | 28 | 318 | 4.8 | 6.4 | 0.00 | 0.00 | 0.00 | 82 | 1013.0 |
| 20260906134258 | 28 | 357 | 4.8 | 6.4 | 0.00 | 0.00 | 0.00 | 83 | 1013.2 |
| 20260906133754 | 28 | 324 | 3.2 | 3.2 | 0.00 | 0.00 | 0.00 | 83 | 1013.1 |
| 20260906133249 | 28 | 329 | 4.8 | 4.8 | 0.00 | 0.00 | 0.00 | 84 | 1013.3 |
| 20260906132744 | 28 | 327 | 1.6 | 1.6 | 0.00 | 0.00 | 0.00 | 86 | 1013.4 |
| 20260906132240 | 28 | 305 | 1.6 | 3.2 | 0.00 | 0.00 | 0.00 | 86 | 1013.4 |
| 20260906131735 | 27 | 343 | 3.2 | 3.2 | 0.00 | 0.00 | 0.00 | 88 | 1013.4 |
| 20260906131230 | 27 | 259 | 3.2 | 3.2 | 0.00 | 0.00 | 0.00 | 89 | 1013.3 |
| 20260906130726 | 27 | 272 | 3.2 | 3.2 | 0.00 | 0.00 | 0.00 | 90 | 1013.3 |
| 20260906130220 | 26 | 284 | 3.2 | 3.2 | 0.00 | 0.00 | 0.00 | 91 | 1013.2 |
| 20260906125719 | 26 | 291 | 1.6 | 1.6 | 0.00 | 0.00 | 0.00 | 91 | 1013.2 |
| 20260906125217 | 26 | 266 | 1.6 | 1.6 | 0.00 | 0.00 | 0.00 | 92 | 1013.1 |
| 20260906124712 | 26 | 248 | 1.6 | 1.6 | 0.00 | 0.00 | 0.00 | 96 | 1013.1 |
| 20260906124208 | 26 | 311 | 0.0 | 1.6 | 0.00 | 0.00 | 0.00 | 97 | 1013.1 |
| 20260906123707 | 26 | 337 | 1.6 | 1.6 | 0.00 | 0.00 | 0.00 | 98 | 1013.0 |
| 20260906123202 | 25 | 327 | 1.6 | 1.6 | 0.00 | 0.00 | 0.00 | 98 | 1012.7 |
| 20260906122701 | 25 | 326 | 1.6 | 1.6 | 0.00 | 0.00 | 0.00 | 98 | 1012.9 |
| 20260906122157 | 25 | 286 | 1.6 | 1.6 | 0.00 | 0.00 | 0.00 | 98 | 1012.9 |
| 20260906121653 | 25 | 352 | 0.0 | 0.0 | 0.00 | 0.00 | 0.00 | 98 | 1012.7 |
| 20260906121149 | 24 | 352 | 0.0 | 0.0 | 0.00 | 0.00 | 0.00 | 98 | 1013.0 |
| 20260906120645 | 24 | 352 | 1.6 | 1.6 | 0.00 | 0.00 | 0.00 | 98 | 1012.8 |
| 20260906120142 | 24 | 352 | 0.0 | 0.0 | 0.00 | 0.00 | 0.00 | 98 | 1012.9 |
| 20260906115642 | 24 | 352 | 1.6 | 1.6 | 0.00 | 0.00 | 0.00 | 98 | 1013.0 |
| 20260906115138 | 24 | 352 | 3.2 | 3.2 | 0.00 | 0.00 | 0.00 | 98 | 1012.8 |
| 20260906114636 | 24 | 352 | 1.6 | 1.6 | 0.00 | 0.00 | 0.00 | 98 | 1012.9 |
| 20260906114131 | 23 | 352 | 1.6 | 1.6 | 0.00 | 0.00 | 0.00 | 98 | 1012.8 |
| 20260906113631 | 23 | 352 | 1.6 | 1.6 | 0.00 | 0.00 | 0.00 | 98 | 1012.9 |
| 20260906113126 | 23 | 352 | 1.6 | 1.6 | 0.00 | 0.00 | 0.00 | 98 | 1012.8 |
| 20260906112625 | 23 | 352 | 0.0 | 0.0 | 0.00 | 0.00 | 0.00 | 98 | 1012.8 |
| 20260906112123 | 23 | 352 | 0.0 | 0.0 | 0.00 | 0.00 | 0.00 | 98 | 1012.7 |
| 20260906111622 | 23 | 352 | 0.0 | 0.0 | 0.00 | 0.00 | 0.00 | 98 | 1012.7 |
| 20260906111117 | 23 | 352 | 0.0 | 0.0 | 0.00 | 0.00 | 0.00 | 98 | 1012.4 |
| 20260906110618 | 23 | 352 | 0.0 | 0.0 | 0.00 | 0.00 | 0.00 | 98 | 1012.5 |
| 20260906110118 | 23 | 352 | 0.0 | 0.0 | 0.00 | 0.00 | 0.00 | 98 | 1012.4 |
| 20260906105612 | 23 | 352 | 0.0 | 0.0 | 0.00 | 0.00 | 0.00 | 98 | 1012.6 |
| 20260906105109 | 23 | 352 | 0.0 | 0.0 | 0.00 | 0.00 | 0.00 | 98 | 1012.4 |
| 20260906104607 | 23 | 352 | 0.0 | 1.6 | 0.00 | 0.00 | 0.00 | 98 | 1012.6 |
| 20260906104101 | 23 | 352 | 0.0 | 0.0 | 0.00 | 0.00 | 0.00 | 98 | 1012.3 |
| 20260906103600 | 23 | 352 | 0.0 | 0.0 | 0.00 | 0.00 | 0.00 | 98 | 1012.4 |
| 20260906103056 | 23 | 352 | 0.0 | 0.0 | 0.00 | 0.00 | 0.00 | 98 | 1012.1 |
| 20260906102555 | 23 | 352 | 0.0 | 0.0 | 0.00 | 0.00 | 0.00 | 98 | 1012.0 |
| 20260906102050 | 23 | 352 | 0.0 | 0.0 | 0.00 | 0.00 | 0.00 | 98 | 1012.0 |
| 20260906101545 | 23 | 352 | 0.0 | 0.0 | 0.00 | 0.00 | 0.00 | 98 | 1012.1 |
| 20260906101039 | 23 | 352 | 0.0 | 0.0 | 0.00 | 0.00 | 0.00 | 98 | 1012.1 |
| 20260906100535 | 23 | 352 | 0.0 | 0.0 | 0.00 | 0.00 | 0.00 | 98 | 1012.1 |
| 20260906100035 | 23 | 352 | 0.0 | 0.0 | 0.00 | 0.00 | 0.00 | 98 | 1012.1 |
| 20260906095530 | 23 | 352 | 0.0 | 0.0 | 0.00 | 0.00 | 0.00 | 98 | 1011.8 |
| 20260906095026 | 23 | 352 | 0.0 | 0.0 | 0.00 | 0.00 | 0.00 | 98 | 1011.8 |
| 20260906094524 | 23 | 352 | 0.0 | 0.0 | 0.00 | 0.00 | 0.00 | 98 | 1011.9 |
| 20260906094020 | 23 | 352 | 0.0 | 0.0 | 0.00 | 0.00 | 0.00 | 98 | 1011.7 |
| 20260906093516 | 23 | 352 | 0.0 | 0.0 | 0.00 | 0.00 | 0.00 | 98 | 1011.8 |
| 20260906093017 | 23 | 352 | 0.0 | 0.0 | 0.00 | 0.00 | 0.00 | 98 | 1011.7 |
| 20260906092517 | 23 | 352 | 0.0 | 0.0 | 0.00 | 0.00 | 0.00 | 98 | 1011.8 |
| 20260906092012 | 23 | 352 | 0.0 | 0.0 | 0.00 | 0.00 | 0.00 | 98 | 1011.6 |
| 20260906091508 | 23 | 352 | 0.0 | 0.0 | 0.00 | 0.00 | 0.00 | 98 | 1011.6 |
| 20260906091004 | 23 | 352 | 0.0 | 0.0 | 0.00 | 0.00 | 0.00 | 98 | 1011.6 |
| 20260906090459 | 23 | 352 | 0.0 | 0.0 | 0.00 | 0.00 | 0.00 | 98 | 1011.5 |
| 20260906085959 | 23 | 352 | 0.0 | 0.0 | 0.00 | 0.00 | 0.00 | 98 | 1011.6 |
| 20260906085458 | 23 | 352 | 0.0 | 0.0 | 0.00 | 0.00 | 0.00 | 98 | 1011.7 |
| 20260906084957 | 23 | 352 | 0.0 | 0.0 | 0.00 | 0.00 | 0.00 | 98 | 1011.6 |
| 20260906084452 | 23 | 352 | 0.0 | 0.0 | 0.00 | 0.00 | 0.00 | 98 | 1011.5 |
| 20260906083951 | 23 | 352 | 0.0 | 0.0 | 0.00 | 0.00 | 0.00 | 98 | 1011.7 |
| 20260906083447 | 23 | 352 | 0.0 | 0.0 | 0.00 | 0.00 | 0.00 | 98 | 1011.3 |
| 20260906082946 | 23 | 352 | 0.0 | 0.0 | 0.00 | 0.00 | 0.00 | 98 | 1011.7 |
| 20260906082442 | 23 | 352 | 0.0 | 1.6 | 0.00 | 0.00 | 0.00 | 98 | 1011.5 |
| 20260906081937 | 23 | 352 | 0.0 | 0.0 | 0.00 | 0.00 | 0.00 | 98 | 1011.5 |
| 20260906081432 | 23 | 352 | 0.0 | 0.0 | 0.00 | 0.00 | 0.00 | 98 | 1011.7 |
| 20260906080929 | 23 | 352 | 1.6 | 1.6 | 0.00 | 0.00 | 0.00 | 98 | 1011.4 |
| 20260906080425 | 23 | 352 | 0.0 | 1.6 | 0.00 | 0.00 | 0.00 | 98 | 1011.4 |
| 20260906075925 | 23 | 353 | 1.6 | 3.2 | 0.00 | 0.00 | 0.00 | 98 | 1011.6 |
| 20260906075420 | 23 | 353 | 0.0 | 1.6 | 0.00 | 0.00 | 0.00 | 98 | 1011.5 |
| 20260906074915 | 23 | 353 | 1.6 | 1.6 | 0.00 | 0.00 | 0.00 | 98 | 1011.5 |
| 20260906074414 | 23 | 224 | 1.6 | 1.6 | 0.00 | 0.00 | 0.00 | 97 | 1011.5 |
| 20260906073914 | 23 | 224 | 1.6 | 1.6 | 0.00 | 0.00 | 0.00 | 97 | 1011.6 |
| 20260906073408 | 23 | 224 | 1.6 | 1.6 | 0.00 | 0.00 | 0.00 | 97 | 1011.6 |
| 20260906072905 | 23 | 224 | 0.0 | 0.0 | 0.00 | 0.00 | 0.00 | 97 | 1011.5 |
| 20260906072400 | 23 | 224 | 0.0 | 0.0 | 0.00 | 0.00 | 0.00 | 97 | 1011.7 |
| 20260906071856 | 23 | 224 | 0.0 | 0.0 | 0.00 | 0.00 | 0.00 | 97 | 1011.5 |
| 20260906071351 | 23 | 224 | 0.0 | 0.0 | 0.00 | 0.00 | 0.00 | 97 | 1011.5 |
| 20260906070847 | 23 | 224 | 0.0 | 0.0 | 0.00 | 0.00 | 0.00 | 97 | 1011.8 |
| 20260906070343 | 23 | 224 | 0.0 | 0.0 | 0.00 | 0.00 | 0.00 | 97 | 1011.7 |
| 20260906065838 | 23 | 224 | 0.0 | 0.0 | 0.00 | 0.00 | 0.00 | 97 | 1011.7 |
| 20260906065332 | 23 | 224 | 0.0 | 0.0 | 0.00 | 0.00 | 0.00 | 97 | 1011.7 |
| 20260906064829 | 23 | 224 | 0.0 | 0.0 | 0.00 | 0.00 | 0.00 | 97 | 1011.5 |
| 20260906064325 | 23 | 224 | 1.6 | 1.6 | 0.00 | 0.00 | 0.00 | 97 | 1011.8 |
| 20260906063824 | 23 | 224 | 1.6 | 1.6 | 0.00 | 0.00 | 0.00 | 97 | 1011.6 |
| 20260906063320 | 24 | 224 | 0.0 | 0.0 | 0.00 | 0.00 | 0.00 | 97 | 1011.5 |
| 20260906062815 | 23 | 223 | 0.0 | 0.0 | 0.00 | 0.00 | 0.00 | 97 | 1011.6 |
| 20260906062314 | 24 | 223 | 3.2 | 3.2 | 0.00 | 0.00 | 0.00 | 97 | 1011.6 |
| 20260906061810 | 23 | 224 | 0.0 | 0.0 | 0.00 | 0.00 | 0.00 | 97 | 1011.8 |
| 20260906061307 | 23 | 224 | 0.0 | 0.0 | 0.00 | 0.00 | 0.00 | 97 | 1012.0 |
| 20260906060807 | 23 | 224 | 0.0 | 0.0 | 0.00 | 0.00 | 0.00 | 97 | 1011.9 |
| 20260906060304 | 23 | 224 | 0.0 | 0.0 | 0.00 | 0.00 | 0.00 | 97 | 1012.0 |
| 20260906055800 | 23 | 224 | 1.6 | 1.6 | 0.00 | 0.00 | 0.00 | 97 | 1011.9 |
| 20260906055255 | 23 | 224 | 0.0 | 0.0 | 0.00 | 0.00 | 0.00 | 97 | 1012.0 |
| 20260906054750 | 24 | 224 | 1.6 | 1.6 | 0.00 | 0.00 | 0.00 | 97 | 1012.1 |
| 20260906054246 | 23 | 224 | 0.0 | 0.0 | 0.00 | 0.00 | 0.00 | 97 | 1012.1 |
| 20260906053742 | 23 | 224 | 0.0 | 0.0 | 0.00 | 0.00 | 0.00 | 97 | 1012.2 |
| 20260906053238 | 24 | 224 | 0.0 | 0.0 | 0.00 | 0.00 | 0.00 | 97 | 1012.3 |
| 20260906052732 | 24 | 224 | 0.0 | 0.0 | 0.00 | 0.00 | 0.00 | 97 | 1012.3 |
| 20260906052229 | 24 | 224 | 0.0 | 0.0 | 0.00 | 0.00 | 0.00 | 97 | 1012.0 |
| 20260906051725 | 24 | 224 | 0.0 | 0.0 | 0.00 | 0.00 | 0.00 | 97 | 1012.1 |
| 20260906051225 | 24 | 224 | 0.0 | 0.0 | 0.00 | 0.00 | 0.00 | 97 | 1012.2 |
| 20260906050720 | 24 | 224 | 0.0 | 0.0 | 0.00 | 0.00 | 0.00 | 96 | 1012.1 |
| 20260906050215 | 23 | 224 | 0.0 | 0.0 | 0.00 | 0.00 | 0.00 | 96 | 1012.2 |
| 20260906045714 | 23 | 224 | 0.0 | 0.0 | 0.00 | 0.71 | 0.71 | 96 | 1012.5 |
| 20260906045209 | 24 | 224 | 0.0 | 0.0 | 0.00 | 0.71 | 0.71 | 96 | 1012.3 |
| 20260906044705 | 24 | 224 | 0.0 | 0.0 | 0.00 | 0.71 | 0.71 | 96 | 1012.3 |
| 20260906044200 | 24 | 224 | 0.0 | 0.0 | 0.00 | 0.71 | 0.71 | 96 | 1012.4 |
| 20260906043656 | 24 | 224 | 0.0 | 0.0 | 0.00 | 0.71 | 0.71 | 96 | 1012.5 |
| 20260906043151 | 24 | 224 | 0.0 | 1.6 | 0.00 | 0.71 | 0.71 | 96 | 1012.2 |
| 20260906042651 | 24 | 224 | 0.0 | 0.0 | 0.00 | 0.71 | 0.71 | 96 | 1012.2 |
| 20260906042150 | 24 | 224 | 0.0 | 0.0 | 0.00 | 0.71 | 0.71 | 96 | 1012.2 |
| 20260906041647 | 24 | 224 | 0.0 | 0.0 | 0.00 | 0.71 | 0.71 | 96 | 1012.4 |
| 20260906041141 | 24 | 224 | 0.0 | 0.0 | 0.00 | 0.71 | 0.71 | 96 | 1012.3 |
| 20260906040637 | 24 | 224 | 0.0 | 0.0 | 0.00 | 0.71 | 0.71 | 96 | 1012.4 |
| 20260906040132 | 24 | 224 | 0.0 | 0.0 | 0.00 | 0.71 | 0.71 | 96 | 1012.6 |
| 20260906035627 | 24 | 224 | 0.0 | 0.0 | 0.00 | 0.71 | 0.71 | 96 | 1012.7 |
| 20260906035123 | 24 | 224 | 0.0 | 0.0 | 0.00 | 0.71 | 0.71 | 95 | 1012.7 |
| 20260906034623 | 24 | 224 | 0.0 | 1.6 | 0.00 | 0.71 | 0.71 | 95 | 1012.9 |
| 20260906034118 | 24 | 224 | 0.0 | 1.6 | 0.00 | 0.71 | 0.71 | 95 | 1012.9 |
| 20260906033614 | 24 | 224 | 1.6 | 1.6 | 0.00 | 0.71 | 0.71 | 95 | 1012.9 |
| 20260906033108 | 24 | 223 | 0.0 | 0.0 | 0.00 | 0.71 | 0.71 | 95 | 1012.6 |
| 20260906032606 | 24 | 223 | 0.0 | 0.0 | 0.00 | 0.71 | 0.71 | 95 | 1012.9 |
| 20260906032105 | 24 | 223 | 0.0 | 0.0 | 0.00 | 0.71 | 0.71 | 95 | 1012.9 |
| 20260906031601 | 24 | 223 | 0.0 | 0.0 | 0.00 | 0.71 | 0.71 | 95 | 1013.1 |
| 20260906031056 | 24 | 223 | 0.0 | 0.0 | 0.00 | 0.71 | 0.71 | 95 | 1013.1 |
| 20260906030555 | 25 | 224 | 0.0 | 0.0 | 0.00 | 0.71 | 0.71 | 95 | 1013.0 |
| 20260906030055 | 25 | 224 | 0.0 | 0.0 | 0.00 | 0.71 | 0.71 | 95 | 1012.9 |
| 20260906025555 | 25 | 224 | 0.0 | 0.0 | 0.00 | 0.71 | 0.71 | 95 | 1012.6 |
| 20260906025054 | 25 | 224 | 0.0 | 0.0 | 0.00 | 0.71 | 0.71 | 95 | 1012.8 |
| 20260906024549 | 25 | 224 | 0.0 | 0.0 | 0.00 | 0.71 | 0.71 | 95 | 1012.8 |
| 20260906024049 | 25 | 224 | 0.0 | 0.0 | 0.00 | 0.71 | 0.71 | 95 | 1013.0 |
| 20260906023545 | 25 | 223 | 0.0 | 0.0 | 0.00 | 0.71 | 0.71 | 95 | 1012.8 |
| 20260906023040 | 25 | 224 | 0.0 | 0.0 | 0.00 | 0.71 | 0.71 | 95 | 1012.9 |
| 20260906022535 | 25 | 223 | 0.0 | 1.6 | 0.00 | 0.71 | 0.71 | 95 | 1012.8 |
| 20260906022030 | 25 | 223 | 0.0 | 1.6 | 0.00 | 0.71 | 0.71 | 95 | 1012.7 |
| 20260906021526 | 25 | 224 | 0.0 | 1.6 | 0.00 | 0.71 | 0.71 | 95 | 1012.5 |
| 20260906021020 | 25 | 223 | 1.6 | 1.6 | 0.00 | 0.71 | 0.71 | 95 | 1012.5 |
| 20260906020519 | 25 | 223 | 0.0 | 0.0 | 0.00 | 0.71 | 0.71 | 95 | 1012.4 |
| 20260906020019 | 25 | 223 | 0.0 | 0.0 | 0.00 | 0.71 | 0.71 | 95 | 1012.5 |
| 20260906015518 | 25 | 223 | 0.0 | 0.0 | 0.00 | 0.71 | 0.71 | 95 | 1012.4 |
| 20260906015018 | 25 | 223 | 0.0 | 0.0 | 0.00 | 0.71 | 0.71 | 95 | 1012.4 |
| 20260906014513 | 25 | 223 | 0.0 | 0.0 | 0.00 | 0.71 | 0.71 | 95 | 1012.2 |
| 20260906014009 | 25 | 223 | 0.0 | 0.0 | 0.00 | 0.71 | 0.71 | 94 | 1012.3 |
| 20260906013504 | 25 | 223 | 0.0 | 0.0 | 0.00 | 0.71 | 0.71 | 94 | 1012.1 |
| 20260906012959 | 25 | 223 | 0.0 | 0.0 | 0.00 | 0.71 | 0.71 | 94 | 1011.9 |
| 20260906012454 | 25 | 223 | 0.0 | 0.0 | 0.00 | 0.71 | 0.71 | 94 | 1011.9 |
| 20260906011954 | 25 | 223 | 0.0 | 1.6 | 0.00 | 0.71 | 0.71 | 94 | 1011.5 |
| 20260906011449 | 25 | 223 | 1.6 | 1.6 | 0.00 | 0.71 | 0.71 | 94 | 1011.6 |
| 20260906010944 | 25 | 223 | 0.0 | 0.0 | 0.00 | 0.71 | 0.71 | 94 | 1011.6 |
| 20260906010440 | 25 | 223 | 0.0 | 0.0 | 0.00 | 0.71 | 0.71 | 93 | 1011.7 |
| 20260906005936 | 25 | 223 | 0.0 | 0.0 | 0.00 | 0.71 | 0.71 | 93 | 1011.4 |
| 20260906005436 | 25 | 223 | 0.0 | 0.0 | 0.00 | 0.71 | 0.71 | 93 | 1011.4 |
| 20260906004934 | 25 | 223 | 0.0 | 0.0 | 0.00 | 0.71 | 0.71 | 92 | 1011.3 |
| 20260906004428 | 26 | 224 | 0.0 | 0.0 | 0.00 | 0.71 | 0.71 | 92 | 1011.1 |
| 20260906003924 | 26 | 224 | 0.0 | 0.0 | 0.00 | 0.71 | 0.71 | 92 | 1011.3 |
| 20260906003419 | 26 | 224 | 0.0 | 0.0 | 0.00 | 0.71 | 0.71 | 91 | 1011.1 |
| 20260906002915 | 26 | 224 | 0.0 | 0.0 | 0.00 | 0.71 | 0.71 | 91 | 1011.2 |
| 20260906002414 | 26 | 224 | 1.6 | 1.6 | 0.00 | 0.71 | 0.71 | 91 | 1011.3 |
| 20260906001909 | 26 | 224 | 0.0 | 0.0 | 0.00 | 0.71 | 0.71 | 90 | 1011.2 |
| 20260906001405 | 26 | 224 | 0.0 | 0.0 | 0.00 | 0.71 | 0.71 | 90 | 1011.2 |
| 20260906000905 | 26 | 223 | 0.0 | 1.6 | 0.00 | 0.71 | 0.71 | 90 | 1011.5 |
| 20260906000400 | 26 | 223 | 0.0 | 0.0 | 0.00 | 0.71 | 0.71 | 89 | 1011.3 |
| 20260905235855 | 26 | 223 | 0.0 | 0.0 | 0.00 | 0.71 | 0.71 | 89 | 1011.2 |
| 20260905235355 | 26 | 223 | 0.0 | 0.0 | 0.00 | 0.71 | 0.71 | 88 | 1011.3 |
| 20260905234850 | 26 | 230 | 1.6 | 1.6 | 0.00 | 0.71 | 0.71 | 87 | 1011.4 |
| 20260905234346 | 27 | 217 | 0.0 | 0.0 | 0.00 | 0.71 | 0.71 | 87 | 1011.5 |
| 20260905233840 | 27 | 217 | 0.0 | 0.0 | 0.00 | 0.71 | 0.71 | 86 | 1011.5 |
| 20260905233335 | 27 | 217 | 0.0 | 0.0 | 0.00 | 0.71 | 0.71 | 86 | 1011.4 |
| 20260905232834 | 27 | 217 | 0.0 | 0.0 | 0.00 | 0.71 | 0.71 | 85 | 1011.6 |
| 20260905232331 | 27 | 217 | 0.0 | 1.6 | 0.00 | 0.71 | 0.71 | 85 | 1011.6 |
| 20260905231826 | 27 | 217 | 0.0 | 0.0 | 0.00 | 0.71 | 0.71 | 85 | 1011.5 |
| 20260905231321 | 27 | 216 | 3.2 | 4.8 | 0.00 | 0.71 | 0.71 | 85 | 1011.7 |
| 20260905230818 | 27 | 221 | 0.0 | 1.6 | 0.00 | 0.71 | 0.71 | 84 | 1011.7 |
| 20260905230315 | 27 | 212 | 1.6 | 1.6 | 0.00 | 0.71 | 0.71 | 84 | 1011.8 |
| 20260905225815 | 27 | 186 | 0.0 | 0.0 | 0.00 | 0.71 | 0.71 | 83 | 1011.7 |
| 20260905225310 | 27 | 186 | 1.6 | 1.6 | 0.00 | 0.71 | 0.71 | 83 | 1011.7 |
| 20260905224810 | 27 | 185 | 0.0 | 0.0 | 0.00 | 0.71 | 0.71 | 82 | 1011.7 |
| 20260905224306 | 27 | 184 | 0.0 | 1.6 | 0.00 | 0.71 | 0.71 | 82 | 1011.7 |
| 20260905223801 | 27 | 187 | 3.2 | 3.2 | 0.00 | 0.71 | 0.71 | 81 | 1011.6 |
| 20260905223258 | 27 | 191 | 3.2 | 4.8 | 0.00 | 0.71 | 0.71 | 80 | 1011.7 |
| 20260905222753 | 27 | 195 | 3.2 | 4.8 | 0.00 | 0.71 | 0.71 | 79 | 1011.7 |
| 20260905222252 | 27 | 182 | 1.6 | 1.6 | 0.00 | 0.71 | 0.71 | 79 | 1011.6 |
| 20260905221748 | 28 | 232 | 1.6 | 1.6 | 0.00 | 0.71 | 0.71 | 77 | 1011.7 |
| 20260905221244 | 28 | 174 | 3.2 | 3.2 | 0.00 | 0.71 | 0.71 | 77 | 1011.7 |
| 20260905220740 | 28 | 222 | 3.2 | 3.2 | 0.00 | 0.71 | 0.71 | 78 | 1011.7 |
| 20260905220236 | 28 | 203 | 0.0 | 1.6 | 0.00 | 0.71 | 0.71 | 78 | 1011.7 |
| 20260905215735 | 28 | 204 | 0.0 | 0.0 | 0.00 | 0.71 | 0.71 | 77 | 1011.7 |
| 20260905215231 | 29 | 235 | 3.2 | 3.2 | 0.00 | 0.71 | 0.71 | 76 | 1011.9 |
| 20260905214727 | 29 | 248 | 1.6 | 1.6 | 0.00 | 0.71 | 0.71 | 73 | 1011.8 |
| 20260905214222 | 29 | 266 | 0.0 | 0.0 | 0.00 | 0.71 | 0.71 | 73 | 1011.7 |
| 20260905213718 | 30 | 266 | 0.0 | 0.0 | 0.00 | 0.71 | 0.71 | 74 | 1011.9 |
| 20260905213214 | 30 | 266 | 1.6 | 1.6 | 0.00 | 0.71 | 0.71 | 72 | 1011.9 |
| 20260905212709 | 30 | 266 | 0.0 | 0.0 | 0.00 | 0.71 | 0.71 | 70 | 1012.1 |
| 20260905212208 | 30 | 266 | 1.6 | 1.6 | 0.00 | 0.71 | 0.71 | 69 | 1012.2 |
| 20260905211702 | 30 | 258 | 1.6 | 1.6 | 0.00 | 0.71 | 0.71 | 68 | 1012.1 |
| 20260905211158 | 30 | 342 | 1.6 | 1.6 | 0.00 | 0.71 | 0.71 | 69 | 1011.9 |
| 20260905210655 | 30 | 346 | 3.2 | 3.2 | 0.00 | 0.71 | 0.71 | 69 | 1011.8 |
| 20260905210154 | 29 | 344 | 3.2 | 3.2 | 0.00 | 0.71 | 0.71 | 69 | 1011.8 |
| 20260905205653 | 30 | 57 | 3.2 | 3.2 | 0.00 | 0.71 | 0.71 | 68 | 1012.0 |
| 20260905205153 | 30 | 358 | 9.7 | 11.3 | 0.00 | 0.71 | 0.71 | 67 | 1011.9 |
| 20260905204652 | 30 | 349 | 4.8 | 4.8 | 0.00 | 0.71 | 0.71 | 67 | 1011.9 |
| 20260905204148 | 30 | 3 | 4.8 | 4.8 | 0.00 | 0.71 | 0.71 | 65 | 1011.9 |
| 20260905203642 | 30 | 28 | 8.0 | 9.7 | 0.00 | 0.71 | 0.71 | 67 | 1011.9 |
| 20260905203138 | 30 | 15 | 6.4 | 9.7 | 0.00 | 0.71 | 0.71 | 67 | 1011.8 |
| 20260905202634 | 31 | 350 | 4.8 | 6.4 | 0.00 | 0.71 | 0.71 | 67 | 1011.7 |
| 20260905202129 | 30 | 8 | 6.4 | 11.3 | 0.00 | 0.71 | 0.71 | 69 | 1011.9 |
| 20260905201624 | 30 | 30 | 9.7 | 11.3 | 0.00 | 0.71 | 0.71 | 71 | 1012.2 |
| 20260905201124 | 29 | 9 | 8.0 | 9.7 | 0.00 | 0.71 | 0.71 | 75 | 1012.2 |
| 20260905200620 | 28 | 15 | 9.7 | 12.9 | 0.00 | 0.71 | 0.71 | 78 | 1012.7 |
| 20260905200115 | 28 | 35 | 12.9 | 16.1 | 0.00 | 0.71 | 0.71 | 80 | 1012.7 |
| 20260905195613 | 28 | 346 | 14.5 | 16.1 | 0.00 | 0.71 | 0.71 | 80 | 1012.6 |
| 20260905195109 | 28 | 337 | 12.9 | 16.1 | 0.00 | 0.71 | 0.71 | 78 | 1012.8 |
| 20260905194609 | 30 | 352 | 17.7 | 24.1 | 0.00 | 0.71 | 0.71 | 72 | 1012.7 |
| 20260905194108 | 33 | 11 | 12.9 | 16.1 | 0.00 | 0.71 | 0.71 | 64 | 1012.8 |
| 20260905193603 | 33 | 25 | 1.6 | 3.2 | 0.00 | 0.71 | 0.71 | 64 | 1012.7 |
| 20260905193058 | 34 | 47 | 3.2 | 3.2 | 0.00 | 0.71 | 0.71 | 58 | 1012.7 |
| 20260905192553 | 34 | 241 | 1.6 | 1.6 | 0.00 | 0.71 | 0.71 | 61 | 1012.7 |
| 20260905192049 | 33 | 249 | 0.0 | 0.0 | 0.00 | 0.71 | 0.71 | 63 | 1012.7 |
| 20260905191548 | 33 | 239 | 3.2 | 4.8 | 0.00 | 0.71 | 0.71 | 63 | 1012.8 |
| 20260905191042 | 33 | 335 | 3.2 | 4.8 | 0.00 | 0.71 | 0.71 | 63 | 1012.8 |
| 20260905190540 | 32 | 218 | 3.2 | 3.2 | 0.00 | 0.71 | 0.71 | 64 | 1012.9 |
| 20260905190039 | 32 | 230 | 3.2 | 3.2 | 0.00 | 0.71 | 0.71 | 65 | 1012.9 |
| 20260905185539 | 31 | 257 | 3.2 | 4.8 | 0.00 | 0.71 | 0.71 | 69 | 1013.1 |
| 20260905185039 | 31 | 209 | 0.0 | 1.6 | 0.00 | 0.71 | 0.71 | 72 | 1013.2 |
| 20260905184539 | 31 | 236 | 1.6 | 3.2 | 0.00 | 0.71 | 0.71 | 70 | 1013.0 |
| 20260905184038 | 32 | 185 | 3.2 | 3.2 | 0.00 | 0.71 | 0.71 | 71 | 1013.2 |
| 20260905183537 | 32 | 244 | 1.6 | 1.6 | 0.00 | 0.71 | 0.71 | 67 | 1013.2 |
| 20260905183033 | 32 | 284 | 1.6 | 1.6 | 0.00 | 0.71 | 0.71 | 66 | 1013.3 |
| 20260905182533 | 32 | 278 | 0.0 | 1.6 | 0.00 | 0.71 | 0.71 | 71 | 1013.1 |
| 20260905182032 | 31 | 276 | 1.6 | 1.6 | 0.00 | 0.71 | 0.71 | 69 | 1013.2 |
| 20260905181527 | 30 | 287 | 1.6 | 1.6 | 0.00 | 0.71 | 0.71 | 72 | 1013.1 |
| 20260905181027 | 30 | 151 | 1.6 | 3.2 | 0.00 | 0.71 | 0.71 | 73 | 1013.4 |
| 20260905180521 | 28 | 152 | 1.6 | 1.6 | 0.00 | 0.71 | 0.71 | 77 | 1013.5 |
| 20260905180017 | 28 | 159 | 3.2 | 3.2 | 0.00 | 0.71 | 0.71 | 87 | 1013.7 |
| 20260905175516 | 27 | 137 | 3.2 | 4.8 | 0.00 | 0.71 | 0.71 | 91 | 1013.6 |
| 20260905175012 | 27 | 147 | 3.2 | 3.2 | 0.18 | 0.71 | 0.71 | 89 | 1013.8 |
| 20260905174507 | 27 | 94 | 1.6 | 3.2 | 0.48 | 0.71 | 0.71 | 92 | 1014.0 |
| 20260905174003 | 27 | 113 | 1.6 | 3.2 | 1.07 | 0.69 | 0.69 | 92 | 1014.1 |
| 20260905173459 | 26 | 149 | 1.6 | 3.2 | 0.97 | 0.66 | 0.66 | 91 | 1014.0 |
| 20260905172954 | 27 | 172 | 3.2 | 3.2 | 0.18 | 0.53 | 0.53 | 90 | 1014.3 |
| 20260905172452 | 27 | 130 | 4.8 | 6.4 | 0.13 | 0.51 | 0.51 | 89 | 1014.1 |
| 20260905171948 | 26 | 139 | 1.6 | 1.6 | 0.30 | 0.51 | 0.51 | 91 | 1014.4 |
| 20260905171444 | 26 | 108 | 0.0 | 1.6 | 0.48 | 0.48 | 0.48 | 91 | 1014.5 |
| 20260905170940 | 26 | 95 | 1.6 | 3.2 | 0.30 | 0.46 | 0.46 | 91 | 1014.6 |
| 20260905170436 | 26 | 119 | 6.4 | 6.4 | 0.00 | 0.41 | 0.41 | 91 | 1014.6 |
| 20260905165936 | 26 | 135 | 4.8 | 6.4 | 0.00 | 0.41 | 0.41 | 91 | 1014.6 |
| 20260905165431 | 25 | 121 | 3.2 | 4.8 | 0.00 | 0.41 | 0.41 | 92 | 1014.5 |
| 20260905164926 | 26 | 99 | 6.4 | 9.7 | 0.00 | 0.41 | 0.41 | 91 | 1014.8 |
| 20260905164426 | 26 | 85 | 8.0 | 11.3 | 2.11 | 0.41 | 0.41 | 90 | 1014.8 |
| 20260905163921 | 27 | 85 | 6.4 | 6.4 | 2.29 | 0.38 | 0.38 | 87 | 1014.9 |
| 20260905163418 | 28 | 13 | 6.4 | 6.4 | 0.13 | 0.03 | 0.03 | 84 | 1014.8 |
| 20260905162913 | 28 | 75 | 3.2 | 3.2 | 0.00 | 0.00 | 0.00 | 79 | 1014.8 |
| 20260905162408 | 29 | 26 | 4.8 | 6.4 | 0.00 | 0.00 | 0.00 | 76 | 1014.7 |
| 20260905161903 | 30 | 36 | 4.8 | 6.4 | 0.00 | 0.00 | 0.00 | 74 | 1014.6 |
| 20260905161402 | 31 | 36 | 3.2 | 3.2 | 0.00 | 0.00 | 0.00 | 73 | 1014.7 |
| 20260905160900 | 31 | 208 | 3.2 | 4.8 | 0.00 | 0.00 | 0.00 | 73 | 1014.7 |
| 20260905160355 | 30 | 167 | 9.7 | 12.9 | 0.00 | 0.00 | 0.00 | 76 | 1014.8 |
| 20260905155855 | 29 | 88 | 1.6 | 1.6 | 0.00 | 0.00 | 0.00 | 80 | 1014.6 |
| 20260905155355 | 30 | 133 | 8.0 | 11.3 | 0.00 | 0.00 | 0.00 | 78 | 1014.8 |
| 20260905154853 | 30 | 176 | 3.2 | 4.8 | 0.00 | 0.00 | 0.00 | 78 | 1014.6 |
| 20260905154349 | 29 | 201 | 6.4 | 6.4 | 0.00 | 0.00 | 0.00 | 79 | 1014.8 |
| 20260905153844 | 29 | 173 | 3.2 | 4.8 | 0.00 | 0.00 | 0.00 | 82 | 1014.6 |
| 20260905153341 | 29 | 197 | 3.2 | 3.2 | 0.00 | 0.00 | 0.00 | 81 | 1014.8 |
| 20260905152841 | 29 | 176 | 0.0 | 0.0 | 0.00 | 0.00 | 0.00 | 80 | 1014.9 |
| 20260905152340 | 30 | 180 | 1.6 | 3.2 | 0.00 | 0.00 | 0.00 | 79 | 1015.1 |
| 20260905151835 | 30 | 137 | 4.8 | 4.8 | 0.00 | 0.00 | 0.00 | 78 | 1014.9 |
| 20260905151331 | 30 | 189 | 3.2 | 4.8 | 0.00 | 0.00 | 0.00 | 77 | 1014.9 |
| 20260905150830 | 30 | 153 | 3.2 | 4.8 | 0.00 | 0.00 | 0.00 | 77 | 1014.7 |